AEE2PH LGAV-EGPH

Flight info

Callsign AEE2PH
Flight time N/A
Altitude 36000
Route KOR UL53 IXONI DCT VARDI DCT DIMIS DCT ADDER DCT PETAK DCT TAZ DCT KUSIB DCT PODET DCT ABTAN DCT SIMBA DCT GASKA DCT MASEK DCT AMGOD L602 NALAX L46 ESHIN N110 ERKIT DCT AGPED
Aircraft A321/M-SDE3FGHIRWY/LB1

Departure

Time N/A
Airport Athens Eleftherios Venizelos International Airport (LGAV)

Arrival

Time 2026-04-25 10:11
Airport Edinburgh Airport (EGPH)
Time Latitude Longitude Altitude Speed Heading
2026-04-25 09:13 52.86305 4.01623 34228 ft 415 kts 299°
2026-04-25 09:13 52.87689 3.97577 34229 ft 416 kts 299°
2026-04-25 09:14 52.90532 3.89233 34226 ft 416 kts 299°
2026-04-25 09:14 52.93366 3.80867 34234 ft 417 kts 299°
2026-04-25 09:15 52.96195 3.72484 34252 ft 417 kts 299°
2026-04-25 09:15 52.99022 3.64097 34258 ft 416 kts 299°
2026-04-25 09:16 53.01340 3.57107 34256 ft 416 kts 298°
2026-04-25 09:16 53.04101 3.48679 34235 ft 416 kts 298°
2026-04-25 09:17 53.08695 3.34604 34229 ft 417 kts 298°
2026-04-25 09:18 53.10525 3.27134 34230 ft 418 kts 284°
2026-04-25 09:18 53.11785 3.17689 34223 ft 418 kts 283°
2026-04-25 09:19 53.13034 3.08269 34223 ft 419 kts 283°
2026-04-25 09:19 53.14282 2.98797 34223 ft 419 kts 283°
2026-04-25 09:20 53.15535 2.89301 34217 ft 420 kts 283°
2026-04-25 09:20 53.16769 2.79795 34223 ft 420 kts 283°
2026-04-25 09:21 53.17987 2.70329 34225 ft 420 kts 283°
2026-04-25 09:21 53.19217 2.60736 34227 ft 421 kts 283°
2026-04-25 09:22 53.20424 2.51191 34219 ft 421 kts 282°
2026-04-25 09:22 53.21623 2.41698 34222 ft 421 kts 282°
2026-04-25 09:23 53.22833 2.32128 34231 ft 422 kts 282°
2026-04-25 09:23 53.24031 2.22550 34233 ft 422 kts 282°
2026-04-25 09:24 53.25212 2.12965 34232 ft 422 kts 282°
2026-04-25 09:24 53.26389 2.03374 34227 ft 421 kts 282°
2026-04-25 09:25 53.27562 1.93770 34230 ft 422 kts 282°
2026-04-25 09:25 53.28723 1.84156 34233 ft 422 kts 282°
2026-04-25 09:26 53.29879 1.74529 34229 ft 423 kts 282°
2026-04-25 09:26 53.31035 1.64891 34234 ft 423 kts 281°
2026-04-25 09:27 53.32176 1.55245 34231 ft 423 kts 281°
2026-04-25 09:27 53.33370 1.45607 34227 ft 423 kts 283°
2026-04-25 09:28 53.34784 1.36037 34229 ft 424 kts 284°
2026-04-25 09:28 53.36243 1.26472 34228 ft 424 kts 283°
2026-04-25 09:29 53.37640 1.16937 34233 ft 424 kts 283°
2026-04-25 09:29 53.38993 1.07410 34234 ft 424 kts 283°
2026-04-25 09:30 53.40349 0.97787 34233 ft 424 kts 282°
2026-04-25 09:30 53.41696 0.88148 34230 ft 425 kts 282°
2026-04-25 09:31 53.43053 0.78505 34234 ft 425 kts 282°
2026-04-25 09:31 53.44401 0.68858 34234 ft 425 kts 282°
2026-04-25 09:32 53.45728 0.59263 34237 ft 425 kts 282°
2026-04-25 09:32 53.47052 0.49604 34231 ft 425 kts 281°
2026-04-25 09:33 53.48367 0.39910 34216 ft 426 kts 281°
2026-04-25 09:33 53.49690 0.30205 34218 ft 427 kts 281°
2026-04-25 09:34 53.51008 0.20481 34226 ft 427 kts 281°
2026-04-25 09:34 53.52305 0.10735 34229 ft 427 kts 281°
2026-04-25 09:35 53.53603 0.00982 34232 ft 428 kts 281°
2026-04-25 09:35 53.54895 -0.08785 34228 ft 429 kts 281°
2026-04-25 09:36 53.56172 -0.18597 34218 ft 430 kts 280°
2026-04-25 09:36 53.58313 -0.27923 34219 ft 435 kts 299°
2026-04-25 09:37 53.62329 -0.35586 34223 ft 443 kts 319°
2026-04-25 09:37 53.67409 -0.41511 34223 ft 445 kts 322°
2026-04-25 09:38 53.72519 -0.47416 34226 ft 445 kts 322°
2026-04-25 09:38 53.77635 -0.53340 34238 ft 445 kts 322°
2026-04-25 09:39 53.82748 -0.59257 34235 ft 445 kts 322°
2026-04-25 09:39 53.87850 -0.65193 34238 ft 445 kts 322°
2026-04-25 09:40 53.95409 -0.74063 34238 ft 445 kts 322°
2026-04-25 09:40 54.00491 -0.80045 34250 ft 444 kts 322°
2026-04-25 09:41 54.05631 -0.85898 34243 ft 445 kts 325°
2026-04-25 09:41 54.10983 -0.91206 34242 ft 446 kts 328°
2026-04-25 09:42 54.16392 -0.96369 34244 ft 445 kts 327°
2026-04-25 09:42 54.21717 -1.01610 34242 ft 445 kts 327°
2026-04-25 09:43 54.27044 -1.06987 34250 ft 444 kts 326°
2026-04-25 09:43 54.32362 -1.12399 34240 ft 445 kts 326°
2026-04-25 09:44 54.37701 -1.17809 34249 ft 446 kts 327°
2026-04-25 09:44 54.42974 -1.23154 34255 ft 447 kts 327°
2026-04-25 09:45 54.48347 -1.28626 34265 ft 447 kts 327°
2026-04-25 09:45 54.53686 -1.34071 33835 ft 444 kts 327°
2026-04-25 09:46 54.56340 -1.36786 33314 ft 444 kts 327°
2026-04-25 09:46 54.58991 -1.39506 32781 ft 444 kts 327°
2026-04-25 09:46 54.61648 -1.42237 32259 ft 444 kts 327°
2026-04-25 09:46 54.64305 -1.44967 31747 ft 445 kts 327°
2026-04-25 09:47 54.66970 -1.47704 31241 ft 446 kts 327°
2026-04-25 09:47 54.69636 -1.50446 30743 ft 447 kts 327°
2026-04-25 09:47 54.72307 -1.53202 30264 ft 447 kts 327°
2026-04-25 09:47 54.74979 -1.55966 29699 ft 448 kts 327°
2026-04-25 09:48 54.77649 -1.58738 29136 ft 447 kts 327°
2026-04-25 09:48 54.80316 -1.61509 28758 ft 447 kts 327°
2026-04-25 09:48 54.82983 -1.64285 28468 ft 449 kts 327°
2026-04-25 09:48 54.85679 -1.67096 28088 ft 453 kts 327°
2026-04-25 09:49 54.88389 -1.69924 27593 ft 455 kts 327°
2026-04-25 09:49 54.91103 -1.72753 27106 ft 456 kts 327°
2026-04-25 09:49 54.93829 -1.75593 26619 ft 456 kts 328°
2026-04-25 09:49 54.96548 -1.78432 26119 ft 454 kts 328°
2026-04-25 09:50 54.99239 -1.81254 25625 ft 451 kts 328°
2026-04-25 09:50 55.01907 -1.84060 25151 ft 443 kts 328°
2026-04-25 09:50 55.04520 -1.86810 24634 ft 434 kts 328°
2026-04-25 09:50 55.07082 -1.89508 24100 ft 426 kts 328°
2026-04-25 09:51 55.09537 -1.92323 23547 ft 418 kts 322°
2026-04-25 09:51 55.11695 -1.95642 22945 ft 410 kts 314°
2026-04-25 09:51 55.13530 -1.99392 22353 ft 403 kts 306°
2026-04-25 09:51 55.15036 -2.03490 21819 ft 399 kts 300°
2026-04-25 09:52 55.16380 -2.07577 21263 ft 396 kts 300°
2026-04-25 09:52 55.17747 -2.11733 20706 ft 393 kts 300°
2026-04-25 09:52 55.19098 -2.15859 20159 ft 389 kts 299°
2026-04-25 09:52 55.20438 -2.19952 19603 ft 386 kts 299°
2026-04-25 09:53 55.21770 -2.24026 19089 ft 386 kts 299°
2026-04-25 09:53 55.23102 -2.28102 18561 ft 384 kts 299°
2026-04-25 09:53 55.24418 -2.32143 17990 ft 381 kts 299°
2026-04-25 09:53 55.25725 -2.36157 17336 ft 377 kts 299°
2026-04-25 09:54 55.27022 -2.40135 16686 ft 374 kts 300°
2026-04-25 09:54 55.28302 -2.44061 16304 ft 366 kts 300°
2026-04-25 09:54 55.29570 -2.47954 16207 ft 367 kts 300°
2026-04-25 09:54 55.30836 -2.51848 16232 ft 368 kts 299°
2026-04-25 09:55 55.32101 -2.55755 16229 ft 368 kts 299°
2026-04-25 09:55 55.33362 -2.59670 16232 ft 368 kts 299°
2026-04-25 09:55 55.34620 -2.63592 16237 ft 368 kts 299°
2026-04-25 09:55 55.35878 -2.67519 16239 ft 368 kts 299°
2026-04-25 09:56 55.37119 -2.71392 16159 ft 367 kts 299°
2026-04-25 09:56 55.38348 -2.75215 15565 ft 361 kts 300°
2026-04-25 09:56 55.39592 -2.79020 14703 ft 357 kts 300°
2026-04-25 09:56 55.40814 -2.82789 13864 ft 353 kts 300°
2026-04-25 09:57 55.42014 -2.86525 12965 ft 349 kts 300°
2026-04-25 09:57 55.43199 -2.90220 12396 ft 342 kts 300°
2026-04-25 09:57 55.44339 -2.93776 12244 ft 325 kts 300°
2026-04-25 09:57 55.45419 -2.97149 12230 ft 306 kts 300°
2026-04-25 09:58 55.46435 -3.00329 12130 ft 292 kts 300°
2026-04-25 09:58 55.47418 -3.03410 11705 ft 286 kts 300°
2026-04-25 09:58 55.48388 -3.06453 11179 ft 283 kts 300°
2026-04-25 09:58 55.49350 -3.09463 10669 ft 281 kts 300°
2026-04-25 09:59 55.50307 -3.12455 10183 ft 279 kts 300°
2026-04-25 09:59 55.51259 -3.15430 9778 ft 277 kts 300°
2026-04-25 09:59 55.52203 -3.18380 9367 ft 275 kts 300°
2026-04-25 09:59 55.53143 -3.21311 8961 ft 274 kts 300°
2026-04-25 10:00 55.54082 -3.24227 8546 ft 272 kts 300°
2026-04-25 10:00 55.55014 -3.27118 8022 ft 270 kts 300°
2026-04-25 10:00 55.55940 -3.29986 7479 ft 268 kts 300°
2026-04-25 10:00 55.56849 -3.32797 6937 ft 266 kts 300°
2026-04-25 10:01 55.57767 -3.35631 6547 ft 265 kts 300°
2026-04-25 10:01 55.58681 -3.38448 6161 ft 264 kts 300°
2026-04-25 10:01 55.59592 -3.41257 5767 ft 264 kts 300°
2026-04-25 10:01 55.60504 -3.44067 5419 ft 262 kts 300°
2026-04-25 10:02 55.61406 -3.46839 5096 ft 259 kts 300°
2026-04-25 10:02 55.62303 -3.49594 4697 ft 258 kts 300°
2026-04-25 10:02 55.63348 -3.52146 4356 ft 256 kts 319°
2026-04-25 10:02 55.64775 -3.53822 4220 ft 246 kts 329°
2026-04-25 10:03 55.66228 -3.55298 4091 ft 235 kts 329°
2026-04-25 10:03 55.67636 -3.56694 3993 ft 231 kts 329°
2026-04-25 10:03 55.69036 -3.58078 3986 ft 231 kts 329°
2026-04-25 10:03 55.70422 -3.59438 3985 ft 226 kts 330°
2026-04-25 10:04 55.71797 -3.60788 3982 ft 226 kts 330°
2026-04-25 10:04 55.73167 -3.62137 4004 ft 222 kts 330°
2026-04-25 10:04 55.74476 -3.63435 3963 ft 210 kts 329°
2026-04-25 10:04 55.75732 -3.64700 3665 ft 207 kts 329°
2026-04-25 10:05 55.76980 -3.65954 3322 ft 206 kts 329°
2026-04-25 10:05 55.78224 -3.67214 3023 ft 205 kts 329°
2026-04-25 10:05 55.79431 -3.68437 3002 ft 194 kts 329°
2026-04-25 10:05 55.80606 -3.69573 2993 ft 191 kts 337°
2026-04-25 10:06 55.81895 -3.70037 2995 ft 190 kts 359°
2026-04-25 10:06 55.83184 -3.69599 2997 ft 190 kts 22°
2026-04-25 10:06 55.84282 -3.68316 3001 ft 190 kts 45°
2026-04-25 10:06 55.84869 -3.66924 3003 ft 190 kts 59°
2026-04-25 10:07 55.85552 -3.64924 3005 ft 189 kts 59°
2026-04-25 10:07 55.86240 -3.62924 3004 ft 189 kts 59°
2026-04-25 10:07 55.86928 -3.60919 2972 ft 190 kts 59°
2026-04-25 10:07 55.87614 -3.58917 2804 ft 189 kts 59°
2026-04-25 10:08 55.88292 -3.56934 2568 ft 186 kts 59°
2026-04-25 10:08 55.88960 -3.54982 2316 ft 182 kts 60°
2026-04-25 10:08 55.89611 -3.53077 2077 ft 176 kts 61°
2026-04-25 10:08 55.90227 -3.51277 1828 ft 164 kts 61°
2026-04-25 10:09 55.90798 -3.49603 1609 ft 152 kts 61°
2026-04-25 10:09 55.91319 -3.48077 1422 ft 138 kts 62°
2026-04-25 10:09 55.91811 -3.46632 1222 ft 134 kts 61°
2026-04-25 10:09 55.92289 -3.45225 1041 ft 133 kts 61°
2026-04-25 10:10 55.92608 -3.44290 896 ft 132 kts 62°
2026-04-25 10:10 55.93086 -3.42884 703 ft 133 kts 60°
2026-04-25 10:10 55.93560 -3.41488 525 ft 131 kts 62°
2026-04-25 10:10 55.94037 -3.40099 358 ft 130 kts 60°
2026-04-25 10:11 55.94512 -3.38708 161 ft 131 kts 60°
2026-04-25 10:11 55.94949 -3.37394 111 ft 99 kts 59°
2026-04-25 10:11 55.95188 -3.36684 114 ft 42 kts 58°
2026-04-25 10:11 55.95246 -3.36427 111 ft 13 kts 116°
2026-04-25 10:12 55.95208 -3.36367 115 ft 6 kts 147°
2026-04-25 10:12 55.95175 -3.36334 115 ft 6 kts 158°
2026-04-25 10:12 55.95080 -3.36392 115 ft 13 kts 195°
2026-04-25 10:13 55.94996 -3.36406 116 ft 13 kts 169°
2026-04-25 10:13 55.94945 -3.36362 113 ft 1 kts 148°
2026-04-25 10:13 55.94942 -3.36359 113 ft 0 kts 147°